Hazlehurst, GA

5:15 PM EDT on October 20, 2019 (GMT -0400)
Hazlehurst

Weather History for KAZE - August, 2019

Change the Weather History Date:

Friday, August 9, 2019

  Actual Average Record
Temperature  
Mean Temperature 87 °F -  
Max Temperature 99 °F 94 °F 99 °F (2019)
Min Temperature 76 °F 76 °F 73 °F (2014)
Cooling Degree Days 22    
Growing Degree Days 37 (Base 50)    
Moisture  
Dew Point 69 °F    
Average Humidity 59    
Maximum Humidity 86    
Minimum Humidity 30    
Precipitation  
Precipitation 0.00 in - - ()
Sea Level Pressure  
Sea Level Pressure 29.91 in    
Wind  
Wind Speed 2 mph (West)    
Max Wind Speed 8 mph    
Max Gust Speed 9 mph    
Visibility 10 miles    
Events      
Averages and records for this station are not official NWS values.
T = Trace of Precipitation, MM = Missing Value Source: NWS Daily Summary

Daily Weather History Graph

Daily Weather History Graph

Search for Another Location

Airport or City:

Astronomy

Aug. 09, 2019 Rise Set
Actual Time 6:51 AM EDT 8:20 PM EDT
Civil Twilight 6:25 AM EDT 8:46 PM EDT
Nautical Twilight 5:53 AM EDT 9:17 PM EDT
Astronomical Twilight 5:21 AM EDT 9:50 PM EDT
Moon 3:56 PM EDT (8/9) 1:49 AM EDT (8/9)
Length of Visible Light 14h 21m
Length of Day
13h 29m
Waxing Gibbous, 70% of the Moon is Illuminated
Aug 9
Waxing Gibbous
Aug 15
Full
Aug 23
Last Quarter
Aug 30
New
Sep 5
First Quarter

Hourly Weather History & Observations

Time (EDT) Temp. Heat Index Dew Point Humidity Pressure Visibility Wind Dir Wind Speed Gust Speed Precip Events Conditions
12:10 AM 78.6 °F - 71.8 °F 79% 29.94 in 10.0 mi Calm Calm - N/A   Clear
12:30 AM 78.4 °F - 71.6 °F 79% 29.94 in 10.0 mi SW 3.5 mph - N/A   Clear
12:50 AM 78.4 °F - 71.6 °F 79% 29.94 in 10.0 mi SW 3.5 mph - N/A   Clear
1:10 AM 78.4 °F - 71.6 °F 79% 29.93 in 10.0 mi SW 3.5 mph - N/A   Clear
1:30 AM 78.3 °F - 71.2 °F 79% 29.92 in 10.0 mi SW 3.5 mph - N/A   Clear
1:50 AM 77.9 °F - 71.1 °F 79% 29.92 in 10.0 mi Calm Calm - N/A   Clear
2:10 AM 77.9 °F - 70.9 °F 79% 29.91 in 10.0 mi Calm Calm - N/A   Clear
2:30 AM 77.9 °F - 70.9 °F 79% 29.91 in 10.0 mi Calm Calm - N/A   Clear
2:50 AM 77.9 °F - 70.7 °F 78% 29.91 in 10.0 mi Calm Calm - N/A   Clear
3:10 AM 77.2 °F - 70.7 °F 80% 29.90 in 10.0 mi Calm Calm - N/A   Clear
3:30 AM 77.0 °F - 70.7 °F 81% 29.90 in 10.0 mi Calm Calm - N/A   Clear
3:50 AM 76.8 °F - 70.9 °F 82% 29.90 in 10.0 mi WNW 3.5 mph - N/A   Clear
4:10 AM 76.5 °F - 70.9 °F 83% 29.90 in 10.0 mi Calm Calm - N/A   Clear
4:30 AM 76.1 °F - 70.9 °F 84% 29.90 in 10.0 mi West 3.5 mph - N/A   Clear
4:50 AM 76.5 °F - 71.1 °F 83% 29.90 in 10.0 mi Calm Calm - N/A   Clear
5:10 AM 76.5 °F - 71.1 °F 83% 29.90 in 10.0 mi Calm Calm - N/A   Clear
5:30 AM 76.5 °F - 71.2 °F 84% 29.90 in 10.0 mi Calm Calm - N/A   Clear
5:50 AM 76.3 °F - 71.6 °F 85% 29.90 in 10.0 mi Calm Calm - N/A   Clear
6:10 AM 76.1 °F - 71.6 °F 86% 29.90 in 10.0 mi Calm Calm - N/A   Clear
6:30 AM 76.1 °F - 71.6 °F 86% 29.90 in 10.0 mi Calm Calm - N/A   Clear
6:50 AM 76.1 °F - 71.6 °F 86% 29.91 in 10.0 mi Calm Calm - N/A   Clear
7:10 AM 77.0 °F - 71.6 °F 83% 29.91 in 10.0 mi Calm Calm - N/A   Clear
7:30 AM 77.4 °F - 71.8 °F 83% 29.92 in 10.0 mi Calm Calm - N/A   Clear
7:50 AM 78.1 °F - 72.1 °F 82% 29.93 in 10.0 mi Calm Calm - N/A   Clear
8:10 AM 79.0 °F - 72.1 °F 79% 29.94 in 10.0 mi Calm Calm - N/A   Clear
8:30 AM 80.1 °F 83.8 °F 72.0 °F 76% 29.94 in 10.0 mi Calm Calm - N/A   Clear
8:50 AM 81.9 °F 86.6 °F 72.0 °F 72% 29.94 in 10.0 mi Calm Calm - N/A   Clear
9:10 AM 83.8 °F 88.9 °F 71.6 °F 66% 29.94 in 10.0 mi West 3.5 mph - N/A   Clear
9:30 AM 84.9 °F 90.7 °F 71.8 °F 65% 29.95 in 10.0 mi Calm Calm - N/A   Clear
9:50 AM 86.0 °F 91.8 °F 71.8 °F 62% 29.96 in 10.0 mi Calm Calm - N/A   Clear
10:10 AM 87.1 °F 93.2 °F 71.8 °F 60% 29.96 in 10.0 mi Calm Calm - N/A   Clear
10:30 AM 88.7 °F 94.3 °F 70.9 °F 55% 29.96 in 10.0 mi WNW 4.6 mph - N/A   Clear
10:50 AM 90.0 °F 96.9 °F 71.6 °F 55% 29.96 in 10.0 mi Calm Calm - N/A   Clear
11:10 AM 91.4 °F 97.3 °F 70.5 °F 50% 29.96 in 10.0 mi NW 3.5 mph - N/A   Clear
11:30 AM 92.1 °F 98.3 °F 70.3 °F 49% 29.96 in 10.0 mi NW 3.5 mph - N/A   Clear
11:50 AM 93.0 °F 98.4 °F 69.3 °F 46% 29.95 in 10.0 mi Calm Calm - N/A   Scattered Clouds
12:10 PM 92.8 °F 98.1 °F 69.4 °F 46% 29.95 in 10.0 mi West 3.5 mph - N/A   Mostly Cloudy
12:30 PM 94.1 °F 98.9 °F 68.4 °F 43% 29.94 in 10.0 mi South 3.5 mph - N/A   Scattered Clouds
12:50 PM 93.9 °F 99.1 °F 68.9 °F 44% 29.94 in 10.0 mi Calm Calm - N/A   Scattered Clouds
1:10 PM 93.4 °F 99.2 °F 69.6 °F 46% 29.94 in 10.0 mi SW 5.8 mph - N/A   Mostly Cloudy
1:30 PM 95.2 °F 100.5 °F 68.7 °F 42% 29.93 in 10.0 mi WNW 6.9 mph - N/A   Mostly Cloudy
1:50 PM 96.1 °F 100.5 °F 67.1 °F 39% 29.92 in 10.0 mi West 4.6 mph 9.2 mph N/A   Mostly Cloudy
2:10 PM 95.4 °F 99.7 °F 67.3 °F 40% 29.92 in 10.0 mi NW 5.8 mph - N/A   Mostly Cloudy
2:30 PM 96.1 °F 98.8 °F 65.5 °F 36% 29.90 in 10.0 mi SW 4.6 mph - N/A   Mostly Cloudy
2:50 PM 97.2 °F 99.6 °F 64.6 °F 34% 29.89 in 10.0 mi Calm Calm - N/A   Mostly Cloudy
3:10 PM 97.2 °F 99.6 °F 64.6 °F 34% 29.89 in 10.0 mi SW 5.8 mph - N/A   Scattered Clouds
3:30 PM 97.7 °F 100.0 °F 64.4 °F 33% 29.88 in 10.0 mi West 8.1 mph - N/A   Scattered Clouds
3:50 PM 97.5 °F 99.7 °F 63.7 °F 33% 29.88 in 10.0 mi Calm Calm - N/A   Scattered Clouds
4:10 PM 98.6 °F 100.5 °F 63.5 °F 31% 29.87 in 10.0 mi West 4.6 mph - N/A   Scattered Clouds
4:30 PM 98.6 °F 100.0 °F 62.6 °F 30% 29.87 in 10.0 mi WNW 5.8 mph - N/A   Scattered Clouds
4:50 PM 97.5 °F 99.2 °F 63.3 °F 32% 29.87 in 10.0 mi West 4.6 mph - N/A   Clear
5:10 PM 97.2 °F 99.1 °F 63.3 °F 33% 29.86 in 10.0 mi Calm Calm - N/A   Clear
5:30 PM 97.9 °F 99.3 °F 62.8 °F 31% 29.87 in 10.0 mi West 6.9 mph - N/A   Clear
5:50 PM 97.9 °F 99.8 °F 63.1 °F 32% 29.87 in 10.0 mi West 4.6 mph - N/A   Clear
6:10 PM 97.0 °F 98.8 °F 63.5 °F 33% 29.87 in 10.0 mi Calm Calm - N/A   Clear
6:30 PM 97.5 °F 99.2 °F 63.1 °F 32% 29.87 in 10.0 mi Calm Calm - N/A   Clear
6:50 PM 96.1 °F 97.8 °F 63.5 °F 34% 29.87 in 10.0 mi WSW 3.5 mph - N/A   Clear
7:10 PM 95.7 °F 97.7 °F 64.0 °F 35% 29.87 in 10.0 mi Calm Calm - N/A   Clear
7:30 PM 94.3 °F 96.7 °F 64.8 °F 38% 29.88 in 10.0 mi Calm Calm - N/A   Clear
7:50 PM 92.8 °F 95.6 °F 65.8 °F 41% 29.89 in 10.0 mi Calm Calm - N/A   Clear
8:10 PM 91.6 °F 94.8 °F 66.6 °F 44% 29.89 in 10.0 mi Calm Calm - N/A   Clear
8:30 PM 90.3 °F 93.9 °F 67.5 °F 47% 29.89 in 10.0 mi Calm Calm - N/A   Clear
8:50 PM 89.6 °F 93.4 °F 68.2 °F 49% 29.90 in 10.0 mi Calm Calm - N/A   Clear
9:10 PM 88.3 °F 92.8 °F 69.4 °F 53% 29.90 in 10.0 mi Calm Calm - N/A   Clear
9:50 PM 85.3 °F 90.8 °F 71.2 °F 63% 29.91 in 10.0 mi Calm Calm - N/A   Clear
10:10 PM 85.3 °F 90.8 °F 71.6 °F 63% 29.92 in 10.0 mi Calm Calm - N/A   Clear
10:30 PM 83.8 °F 88.6 °F 70.9 °F 65% 29.92 in 10.0 mi Calm Calm - N/A   Clear
10:50 PM 84.6 °F 90.7 °F 72.3 °F 67% 29.93 in 10.0 mi Calm Calm - N/A   Clear
11:10 PM 84.4 °F 89.7 °F 71.2 °F 65% 29.93 in 10.0 mi Calm Calm - N/A   Clear
11:30 PM 83.3 °F 89.6 °F 73.4 °F 72% 29.93 in 10.0 mi Calm Calm - N/A   Clear
11:50 PM 84.0 °F 89.3 °F 71.6 °F 66% 29.93 in 10.0 mi Calm Calm - N/A   Clear